Flag for France Weather past 2 weeks in Marigot, Saint Martin, France

Now
77 °F

Passing clouds.


Feels Like: 79 °F
Forecast: 76 / 82 °F
Wind: 9 mph from Southeast

Location: Juliana Airport - Saint Maarten

Current Time: Mar 30, 2015 at 1:14:33 AM

Latest Report: Mar 30, 2015 at 12:00 AM


Visibility: N/A

Pressure: 30.07 "Hg

Humidity: 69%

Dew point: 66 °F

Location of MarigotLocation

Historic Weather in Marigot — Graph

°F

Marigot temperature yesterday

Maximum temperature yesterday: 82 °F (at 9:00 AM)
Minimum temperature yesterday: 77 °F (at 2:00 AM)
Average temperature yesterday: 80 °F

Past Weeks' High & Low Weather Summary

 TemperatureHumidityPressure
High84 °F (Mar 17, 1:00 PM)83% (Mar 16, 2:00 AM)30.18 "Hg (Mar 16, 2:00 AM)
Low73 °F (Mar 16, 2:00 AM)44% (Mar 15, 6:00 AM)29.92 "Hg (Mar 15, 8:00 PM)
Average79 °F68%30.04 "Hg
* Reported Midnight between Mar 14 and Mar 15 — Midnight between Mar 29 and Mar 30, Marigot, Weather by CustomWeather, © 2015

Note: Actual official high and low records may vary slightly from our data, if they occured in-between our weather recording intervals... More about our weather records

Advertising

Marigot weather history for previous 24 hours

 ConditionsComfort  
Time TempWeatherWind HumidityBarometerVisibility
12:00 AM
Mon, Mar 30
77 °FPassing clouds.9 mph69%30.07 "HgN/A
11:00 PM
Sun, Mar 29
79 °FPassing clouds.8 mph65%30.09 "HgN/A
10:00 PM79 °FPassing clouds.7 mph61%30.09 "HgN/A
9:00 PM79 °FPassing clouds.6 mph70%30.09 "HgN/A
8:00 PM79 °FPassing clouds.8 mph70%30.09 "HgN/A
7:00 PM79 °FPassing clouds.10 mph70%30.07 "HgN/A
6:00 PM79 °FScattered clouds.10 mph74%30.04 "HgN/A
5:00 PM81 °FPassing clouds.10 mph66%30.04 "HgN/A
4:00 PM82 °FPartly sunny.13 mph66%30.04 "HgN/A
3:00 PM82 °FScattered clouds.12 mph70%30.04 "HgN/A
2:00 PM82 °FScattered clouds.13 mph66%30.07 "HgN/A
1:00 PM82 °FPassing clouds.14 mph66%30.09 "HgN/A
12:00 PM82 °FPassing clouds.10 mph66%30.09 "HgN/A
11:00 AM81 °FSprinkles. Broken clouds.9 mph66%30.15 "HgN/A
10:00 AM82 °FPassing clouds.13 mph62%30.12 "HgN/A
9:00 AM82 °FPassing clouds.13 mph58%30.12 "HgN/A
8:00 AM81 °FPassing clouds.12 mph62%30.12 "HgN/A
7:00 AM79 °FScattered clouds.13 mph70%30.09 "HgN/A
6:00 AM77 °FPassing clouds.12 mph69%30.09 "HgN/A
5:00 AM79 °FPassing clouds.12 mph65%30.07 "HgN/A
4:00 AM77 °FPassing clouds.10 mph74%30.07 "HgN/A
3:00 AM77 °FPassing clouds.12 mph69%30.07 "HgN/A
2:00 AM77 °FPassing clouds.12 mph74%30.07 "HgN/A
1:00 AM79 °FPassing clouds.12 mph65%30.09 "HgN/A
Weather by CustomWeather, © 2015

See weather overviewHow to use our weather pages